User: anonymous   Login
Location: SAPM � Hemmingford
(45.0500°N, 73.5833°W)
Time: 19:39:05
(UTC-05:00)
Language:

Cosmos 1603 - Orbit

View from above orbital plane
View from above orbital plane
View from above satellite
View from above satellite

Ground track
Ground track

The orbit data is extracted from the following two-line orbital elements,

1 15333U 84106A   17051.27466216 -.00000173  00000-0 -66093-4 0  9993
2 15333  71.0275 337.1864 0018629  18.7900 341.3906 14.14044885671731
Epoch (UTC): 20 February 2017 06:35:30
Eccentricity: 0.0018629
inclination: 71.0275°
perigee height: 832 km
apogee height: 859 km
right ascension of ascending node: 337.1864°
argument of perigee: 18.7900°
revolutions per day: 14.14044885
mean anomaly at epoch: 341.3906°
orbit number at epoch: 67173

The dashed part of the orbit path shows where the satellite is in the earth's shadow,  

DLR